Change the Weather History Date:

Tuesday, February 18, 2014

  Actual Average (LFTW) Record (LFTW)
Temperature  
Mean Temperature 45 °F -  
Max Temperature 55 °F 53 °F 68 °F (1998)
Min Temperature 35 °F 38 °F 28 °F (2003)
Degree Days  
Heating Degree Days 20    
Moisture  
Dew Point 40 °F    
Average Humidity 83    
Maximum Humidity 100    
Minimum Humidity 58    
Precipitation  
Precipitation 0.00 in - - ()
Sea Level Pressure  
Sea Level Pressure 29.97 in    
Wind  
Wind Speed 2 mph ()    
Max Wind Speed 9 mph    
Max Gust Speed -    
Visibility 6.0 miles    
Events      
Averages and records for this station are not official NWS values.
T = Trace of Precipitation, MM = Missing Value Source: Averaged Metar Reports

Daily Weather History Graph

Daily Weather History Graph

Search for Another Location

Airport or City:

Trip Planner

Search our weather history database for the weather conditions in past years. The results will help you decide how hot, cold, wet, or windy it might be!

Date:

Astronomy

Feb. 18, 2014 Rise Set
Actual Time 7:35 AM CET 6:14 PM CET
Civil Twilight 7:05 AM CET 6:43 PM CET
Nautical Twilight 6:32 AM CET 7:17 PM CET
Astronomical Twilight 5:58 AM CET 7:50 PM CET
Moon 10:00 PM CET (2/18) 8:51 AM CET (2/18)
Length of Visible Light 11h 37m
Length of Day
10h 38m
Waning Gibbous, 89% of the Moon is Illuminated
Feb 18
Waning Gibbous
Feb 22
Last Quarter
Mar 1
New
Mar 8
First Quarter
Mar 16
Full

Hourly Weather History & Observations

Time (CET) Temp. Windchill Dew Point Humidity Pressure Visibility Wind Dir Wind Speed Gust Speed Precip Events Conditions
12:00 AM 39.2 °F - 35.6 °F 87% 30.04 in 6.2 mi Calm Calm - N/A   Unknown
12:30 AM 39.2 °F - 37.4 °F 93% 30.04 in 6.2 mi Calm Calm - N/A   Unknown
1:00 AM 39.2 °F - 35.6 °F 87% 30.04 in 6.2 mi Calm Calm - N/A   Unknown
1:30 AM 39.2 °F - 35.6 °F 87% 30.01 in 6.2 mi NNE 2.3 mph - N/A   Unknown
2:00 AM 39.2 °F - 35.6 °F 87% 30.04 in 6.2 mi Calm Calm - N/A   Unknown
2:30 AM 37.4 °F - 35.6 °F 93% 30.01 in 6.2 mi Variable 2.3 mph - N/A   Unknown
3:00 AM 39.2 °F 37.0 °F 37.4 °F 93% 30.01 in 5.6 mi North 3.5 mph - N/A   Unknown
3:30 AM 39.2 °F 37.0 °F 37.4 °F 93% 30.01 in 6.2 mi North 3.5 mph - N/A   Unknown
4:00 AM 37.4 °F - 35.6 °F 93% 30.01 in 5.0 mi Variable 2.3 mph - N/A   Unknown
4:30 AM 37.4 °F 34.9 °F 37.4 °F 100% 30.01 in 6.2 mi NNE 3.5 mph - N/A   Unknown
5:00 AM 37.4 °F - 35.6 °F 93% 30.01 in 6.2 mi North 1.2 mph - N/A   Unknown
5:30 AM 37.4 °F - 35.6 °F 93% 29.98 in 6.2 mi Calm Calm - N/A   Unknown
6:00 AM 35.6 °F - 33.8 °F 93% 29.98 in 4.3 mi Calm Calm - N/A   Unknown
6:30 AM 35.6 °F 32.8 °F 33.8 °F 93% 29.98 in 4.3 mi South 3.5 mph - N/A   Unknown
7:00 AM 35.6 °F 32.8 °F 33.8 °F 93% 29.98 in 4.3 mi South 3.5 mph - N/A   Unknown
7:30 AM 37.4 °F - 35.6 °F 93% 29.98 in 5.6 mi Calm Calm - N/A   Unknown
8:00 AM 37.4 °F - 37.4 °F 100% 29.98 in 6.2 mi East 2.3 mph - N/A   Unknown
8:30 AM 39.2 °F - 37.4 °F 93% 30.01 in 6.2 mi Variable 1.2 mph - N/A   Unknown
9:00 AM 39.2 °F - 39.2 °F 100% 30.01 in 6.2 mi Variable 1.2 mph - N/A   Unknown
9:30 AM 41.0 °F - 39.2 °F 93% 30.01 in 6.2 mi Calm Calm - N/A   Unknown
10:00 AM 42.8 °F - 41.0 °F 93% 30.01 in 6.2 mi Calm Calm - N/A   Unknown
10:30 AM 44.6 °F - 41.0 °F 87% 30.01 in 6.2 mi Calm Calm - N/A   Unknown
11:00 AM 46.4 °F 45.2 °F 41.0 °F 81% 29.98 in 6.2 mi Variable 3.5 mph - N/A   Unknown
11:30 AM 48.2 °F - 42.8 °F 82% 29.98 in 6.2 mi North 5.8 mph - N/A   Unknown
12:00 PM 50.0 °F - 42.8 °F 76% 29.98 in 6.2 mi NNW 4.6 mph - N/A   Unknown
12:30 PM 51.8 °F - 42.8 °F 71% 29.95 in 6.2 mi North 4.6 mph - N/A   Unknown
1:00 PM 55.4 °F - 42.8 °F 63% 29.95 in 6.2 mi North 5.8 mph - N/A   Unknown
1:30 PM 55.4 °F - 42.8 °F 63% 29.92 in 6.2 mi North 6.9 mph - N/A   Unknown
2:00 PM 55.4 °F - 42.8 °F 63% 29.92 in 6.2 mi NNW 6.9 mph - N/A   Unknown
2:30 PM 55.4 °F - 42.8 °F 63% 29.92 in 6.2 mi NNW 6.9 mph - N/A   Unknown
3:00 PM 55.4 °F - 42.8 °F 63% 29.92 in 6.2 mi NNW 9.2 mph - N/A   Unknown
3:30 PM 55.4 °F - 42.8 °F 63% 29.92 in 6.2 mi NNW 8.1 mph - N/A   Unknown
4:00 PM 55.4 °F - 41.0 °F 58% 29.92 in 6.2 mi North 6.9 mph - N/A   Unknown
4:30 PM 53.6 °F - 42.8 °F 67% 29.89 in 6.2 mi North 5.8 mph - N/A   Unknown
5:00 PM 53.6 °F - 42.8 °F 67% 29.89 in 6.2 mi Variable 2.3 mph - N/A   Unknown
5:30 PM 53.6 °F - 42.8 °F 67% 29.86 in 6.2 mi Variable 3.5 mph - N/A   Unknown
6:00 PM 51.8 °F - 42.8 °F 71% 29.89 in 6.2 mi Variable 2.3 mph - N/A   Unknown
6:30 PM 48.2 °F - 42.8 °F 82% 29.89 in 6.2 mi Calm Calm - N/A   Unknown
7:00 PM 48.2 °F - 42.8 °F 82% 29.92 in 6.2 mi Calm Calm - N/A   Unknown
7:30 PM 46.4 °F - 42.8 °F 87% 29.92 in 6.2 mi Variable 2.3 mph - N/A   Unknown
8:00 PM 46.4 °F - 42.8 °F 87% 29.92 in 6.2 mi Variable 1.2 mph - N/A   Unknown
8:30 PM 46.4 °F 45.2 °F 42.8 °F 87% 29.92 in 6.2 mi Variable 3.5 mph - N/A   Unknown
9:00 PM 48.2 °F - 42.8 °F 82% 29.95 in 6.2 mi North 4.6 mph - N/A   Unknown
9:30 PM 48.2 °F - 42.8 °F 82% 29.95 in 6.2 mi North 6.9 mph - N/A   Unknown
10:00 PM 48.2 °F - 41.0 °F 76% 29.95 in 6.2 mi North 4.6 mph - N/A   Unknown
10:30 PM 48.2 °F - 42.8 °F 82% 29.95 in 6.2 mi NNE 3.5 mph - N/A   Unknown
11:00 PM 46.4 °F - 41.0 °F 81% 29.95 in 6.2 mi Variable 2.3 mph - N/A   Unknown
11:30 PM 46.4 °F - 42.8 °F 87% 29.95 in 6.2 mi Calm Calm - N/A   Unknown